sat.trackr.live / text

‹ back to catalog

STARLINK-3808

NORAD 52366 · 2022-045AM

PAYLOAD ACTIVE UNKNOWN

§ Identity

Operator
Country
US
Launch date
2022-04-29
Launch site
AFETR
Launch vehicle
Mass (kg)
RCS (m²)

Purposes: comms

External: N2YO · Heavens-Above · Gunter

§ Orbital elements

Epoch: 2026-09-20T01:13:14.000736Z

Period
93.85 min
Inclination
53.1611°
Eccentricity
0.0000838
Mean motion
15.34401175 rev/d
Perigee alt
462.1 km
Apogee alt
463.3 km
Semi-major
6,840.8 km
B*
9.0905e-5
RAAN
27.4703°
Arg perigee
97.4320°
Mean anomaly
262.6778°
Rev number
24,538

§ Raw data

STARLINK-38081 52366U 22045AM  26263.05085649  .00002697  00000+0  90905-4 0  99912 52366  53.1611  27.4703 0000838  97.4320 262.6778 15.34401175245389

JSON: /api/v1/satellites/52366 · /tle

For live sub-satellite position, see the globe view (requires WebGL).

§ Visibility from observer

Set your observer location to see the next 7 days of passes ≥ 10°. The values pass through the URL so the page stays shareable.

No JS? Fill the form by hand. The geolocation button needs JavaScript.